Regional Weather Roundup
Issued by NWS Mt. Holly, NJ

Current Version | Previous Version | Text Only | Print | Product List | Glossary Off
Versions: 1 2 3 4 5 6 7 8 9 10 11 12 13 14 15 16 17 18 19 20 21 22 23 24 25 26 27 28 29 30 31 32 33 34 35 36 37 38 39 40 41 42 43 44 45 46 47 48 49 50

022
ASUS41 KPHI 290712
RWRPHI

REGIONAL WEATHER ROUNDUP
NATIONAL WEATHER SERVICE MOUNT HOLLY NJ
300 AM EDT FRI JUL 29 2016

NOTE:  "FAIR" INDICATES FEW OR NO CLOUDS BELOW 12,000 FEET WITH NO
SIGNIFICANT WEATHER AND/OR OBSTRUCTIONS TO VISIBILITY.

 * = STATION DOES NOT REPORT PRECIPITATION (E.G. RAIN, SNOW, ETC.)
        OR FOG.

NJZ015>026-290800-
SOUTHERN NEW JERSEY

CITY           SKY/WX    TMP DP  RH WIND       PRES   REMARKS
POMONA         CLOUDY    74  72  93 N3        29.80F
WILDWOOD*        N/A    N/A N/A N/A MISG        N/A
MILLVILLE      LGT RAIN  74  72  93 CALM      29.81F FOG
WRIGHTSTOWN    CLOUDY    73  72  94 N7        29.78F
MOUNT HOLLY    CLOUDY    73  72  96 N6        29.81F FOG
TRENTON        LGT RAIN  75  72  90 NE3       29.83F

$$
NJZ001>014-290800-
NORTHERN NEW JERSEY

CITY           SKY/WX    TMP DP  RH WIND       PRES   REMARKS
SUSSEX         LGT RAIN  72  72 100 CALM      29.88S FOG
ANDOVER*         N/A     72  70  93 N5        29.88F
MORRISTOWN     HVY RAIN  73  70  88 NE3       29.85F
NEWARK         LGT RAIN  75  73  93 N3        29.84F
TETERBORO      RAIN      72  69  90 N5        29.83F FOG
CALDWELL       HVY RAIN  73  72  96 NE3       29.86F FOG
SOMERVILLE     CLOUDY    74  72  93 N5        29.82F FOG
ALLAIRE*       CLOUDY    74  71  91 NE5       29.84F
TOMS RIVER*    CLOUDY    73  73 100 NE5       29.81F FOG

$$
PAZ043-044-047-054-055-060>062-066>071-290800-
EASTERN PENNSYLVANIA

CITY           SKY/WX    TMP DP  RH WIND       PRES   REMARKS
PHILADELPHIA   CLOUDY    75  72  90 NE3       29.82F
NORTH PHILA    MOCLDY    75  74  96 NE9       29.83F FOG
BLUE BELL*     CLOUDY    70  70 100 N3        29.83F
DOYLESTOWN     HVY RAIN  71  71 100 N3        29.85F FOG
QUAKERTOWN*    CLOUDY    72  72 100 CALM      29.86F
PERKASIE*      CLOUDY    72  72 100 SE3       29.87F FOG
POTTSTOWN      HVY RAIN  72  72 100 CALM      29.87F FOG
LANCASTER      RAIN      71  71 100 N6        29.86F FOG
COATESVILLE    LGT RAIN  72  72 100 N5        29.86F
READING        RAIN      72  69  90 N7        29.85F FOG
ALLENTOWN      LGT RAIN  74  71  91 CALM      29.87F FOG
MOUNT POCONO   LGT RAIN  67  65  93 CALM      29.94S
HAZLETON       LGT RAIN  68  66  94 CALM      29.95F
LEHIGHTON      RAIN      70  70 100 CALM      29.90F
WILKES BARRE   LGT RAIN  71  69  93 CALM      29.90S FOG

$$
DEZALL-MDZ008-012-015-019-020-290800-
DELAWARE AND EASTERN MARYLAND

CITY           SKY/WX    TMP DP  RH WIND       PRES   REMARKS
WILMINGTON     LGT RAIN  74  73  97 N5        29.83F FOG
DOVER          DRIZZLE   75  75 100 W2        29.79F
GEORGETOWN     LGT RAIN  74  72  93 N5        29.81F
EASTON         CLOUDY    75  75 100 E5        29.83F
PATUXENT       CLOUDY    76  73  91 CALM      29.76F THUNDER
OCEAN CITY       N/A    N/A N/A N/A MISG      29.77F
WALLOPS ISLAND FAIR      76  74  93 CALM      29.79F
CAMBRIDGE      CLOUDY    72  72 100 CALM      29.79F

$$
PAZ001-021-NYZ056-072-MDZ011-DCZ001-290800-
OTHER NEARBY LOCATIONS

CITY           SKY/WX    TMP DP  RH WIND       PRES   REMARKS
HARRISBURG     RAIN      74  74 100 N6        29.85F FOG
STATE COLLEGE  CLOUDY    67  66  99 CALM      29.92F FOG
WILLIAMSPORT   CLOUDY    71  65  81 CALM      29.87F
BINGHAMTON     CLOUDY    68  65  90 CALM      29.92S
NEW YORK CITY  CLOUDY    75  72  90 VRB3      29.87F FOG
BALTIMORE      LGT RAIN  75  73  93 N7        29.80F FOG
WASHINGTON DC  LGT RAIN  78  75  90 N6        29.80F

$$




USA.gov is the U.S. government's official web portal to all federal, state and local government web resources and services.